Hourly Weather Rurrenabaque

Today, 16 May, Sunday

Time Temperature Precipitation Wind Pressure Humidity
00:00 +20°C° 0 mm 0 mps 730 mmHg 90%
01:00 +20°C° 0 mm 0 mps 730 mmHg 91%
02:00 +20°C° 0 mm 0 mps 730 mmHg 92%
03:00 +20°C° 0 mm 0 mps 730 mmHg 91%
04:00 +20°C° 0 mm 0 mps 730 mmHg 91%
05:00 +20°C° 0 mm 0 mps 730 mmHg 91%
06:00 +21°C° 0 mm 0 mps 730 mmHg 88%
07:00 +21°C° 0 mm 0 mps 731 mmHg 85%
08:00 +22°C° 0 mm 0 mps 731 mmHg 83%
09:00 +24°C° 0 mm 0 mps 731 mmHg 73%
10:00 +27°C° 0 mm 0 mps 732 mmHg 63%
11:00 +29°C° 0 mm 0 mps 732 mmHg 53%
12:00 +30°C° 0 mm 0 mps 731 mmHg 50%
13:00 +32°C° 0 mm 1 mps 730 mmHg 48%
14:00 +33°C° 0 mm 1 mps 729 mmHg 45%
15:00 +31°C° 0 mm 1 mps 729 mmHg 54%
16:00 +27°C° 0 mm 0 mps 728 mmHg 62%
17:00 +26°C° 0 mm 0 mps 728 mmHg 71%
18:00 +25°C° 0 mm 0 mps 729 mmHg 72%
19:00 +25°C° 0 mm 0 mps 729 mmHg 74%
20:00 +24°C° 0 mm 0 mps 730 mmHg 75%
21:00 +24°C° 0 mm 0 mps 730 mmHg 77%
22:00 +24°C° 0 mm 0 mps 730 mmHg 79%
23:00 +23°C° 0 mm 0 mps 730 mmHg 82%

Tomorrow, 17 May, Monday

Time Temperature Precipitation Wind Pressure Humidity
00:00 +23°C° 0.1 mm 0 mps 730 mmHg 83%
01:00 +23°C° 0.1 mm 0 mps 730 mmHg 85%
02:00 +22°C° 0.1 mm 0 mps 730 mmHg 87%
03:00 +22°C° 0.1 mm 0 mps 730 mmHg 89%
04:00 +22°C° 0.1 mm 0 mps 730 mmHg 90%
05:00 +21°C° 0.1 mm 0 mps 730 mmHg 92%
06:00 +22°C° 0.1 mm 0 mps 730 mmHg 92%
07:00 +22°C° 0.1 mm 0 mps 731 mmHg 92%
08:00 +22°C° 0.1 mm 0 mps 731 mmHg 92%
09:00 +23°C° 1.1 mm 0 mps 732 mmHg 89%
10:00 +25°C° 1.1 mm 0 mps 732 mmHg 85%
11:00 +26°C° 1.1 mm 0 mps 732 mmHg 82%
12:00 +26°C° 1.3 mm 0 mps 732 mmHg 79%
13:00 +27°C° 1.3 mm 0 mps 731 mmHg 76%
14:00 +28°C° 1.3 mm 0 mps 730 mmHg 72%
15:00 +27°C° 0.5 mm 0 mps 730 mmHg 75%
16:00 +26°C° 0.5 mm 0 mps 730 mmHg 78%
17:00 +26°C° 0.5 mm 0 mps 729 mmHg 80%
18:00 +24°C° 0.6 mm 0 mps 730 mmHg 86%
19:00 +22°C° 0.6 mm 0 mps 730 mmHg 91%
20:00 +23°C° 0.6 mm 1 mps 731 mmHg 97%
21:00 +23°C° 0.1 mm 1 mps 731 mmHg 97%
22:00 +22°C° 0.1 mm 1 mps 731 mmHg 97%
23:00 +22°C° 0.1 mm 1 mps 731 mmHg 97%

Day after tomorrow, 18 May, Tuesday

Time Temperature Precipitation Wind Pressure Humidity
00:00 +22°C° 0.2 mm 1 mps 731 mmHg 98%
01:00 +20°C° 0.2 mm 0 mps 731 mmHg 98%
02:00 +20°C° 0.2 mm 0 mps 730 mmHg 98%
03:00 +20°C° 0.6 mm 0 mps 730 mmHg 98%
04:00 +20°C° 0.6 mm 0 mps 730 mmHg 98%
05:00 +20°C° 0.6 mm 0 mps 730 mmHg 98%
06:00 +20°C° 0.3 mm 0 mps 731 mmHg 98%
07:00 +20°C° 0.3 mm 0 mps 731 mmHg 97%
08:00 +21°C° 0.3 mm 0 mps 732 mmHg 97%
09:00 +23°C° 0 mm 0 mps 732 mmHg 85%
10:00 +26°C° 0 mm 0 mps 732 mmHg 74%
11:00 +28°C° 0 mm 0 mps 733 mmHg 62%
12:00 +28°C° 0.6 mm 0 mps 732 mmHg 65%
13:00 +28°C° 0.6 mm 0 mps 731 mmHg 68%
14:00 +28°C° 0.6 mm 0 mps 730 mmHg 71%
15:00 +29°C° 0.6 mm 1 mps 729 mmHg 77%
16:00 +28°C° 0.6 mm 1 mps 729 mmHg 83%
17:00 +26°C° 0.6 mm 1 mps 728 mmHg 90%
18:00 +25°C° 0.1 mm 1 mps 728 mmHg 92%
19:00 +24°C° 0.1 mm 1 mps 729 mmHg 94%
20:00 +23°C° 0.1 mm 1 mps 729 mmHg 95%
21:00 +23°C° 0 mm 1 mps 729 mmHg 95%
22:00 +22°C° 0 mm 1 mps 730 mmHg 95%
23:00 +22°C° 0 mm 1 mps 730 mmHg 95%

19 May, Wednesday

Time Temperature Precipitation Wind Pressure Humidity
00:00 +22°C° 0.1 mm 1 mps 729 mmHg 95%
01:00 +22°C° 0.1 mm 1 mps 729 mmHg 94%
02:00 +20°C° 0.1 mm 0 mps 729 mmHg 94%
03:00 +22°C° 0.2 mm 1 mps 729 mmHg 95%
04:00 +22°C° 0.2 mm 1 mps 729 mmHg 96%
05:00 +21°C° 0.2 mm 1 mps 729 mmHg 98%
06:00 +20°C° 0 mm 0 mps 729 mmHg 97%
07:00 +20°C° 0 mm 0 mps 730 mmHg 96%
08:00 +21°C° 0 mm 0 mps 730 mmHg 95%
09:00 +23°C° 0 mm 0 mps 730 mmHg 84%
10:00 +25°C° 0 mm 0 mps 730 mmHg 72%
11:00 +30°C° 0 mm 1 mps 731 mmHg 61%
12:00 +31°C° 0 mm 1 mps 730 mmHg 56%
13:00 +32°C° 0 mm 1 mps 729 mmHg 52%
14:00 +34°C° 0 mm 2 mps 728 mmHg 47%
15:00 +31°C° 0 mm 1 mps 727 mmHg 55%
16:00 +30°C° 0 mm 1 mps 727 mmHg 63%
17:00 +26°C° 0 mm 0 mps 726 mmHg 72%
18:00 +25°C° 0 mm 0 mps 726 mmHg 74%
19:00 +25°C° 0 mm 0 mps 727 mmHg 76%
20:00 +24°C° 0 mm 0 mps 727 mmHg 79%
21:00 +23°C° 0 mm 0 mps 727 mmHg 82%
22:00 +22°C° 0 mm 0 mps 728 mmHg 85%
23:00 +22°C° 0 mm 0 mps 728 mmHg 87%

20 May, Thursday

Time Temperature Precipitation Wind Pressure Humidity
00:00 +21°C° 0 mm 0 mps 728 mmHg 88%
01:00 +21°C° 0 mm 0 mps 727 mmHg 89%
02:00 +21°C° 0 mm 0 mps 727 mmHg 90%
03:00 +21°C° 0 mm 0 mps 727 mmHg 90%
04:00 +21°C° 0 mm 0 mps 727 mmHg 90%
05:00 +20°C° 0 mm 0 mps 727 mmHg 91%
06:00 +21°C° 0 mm 0 mps 727 mmHg 88%
07:00 +22°C° 0 mm 0 mps 728 mmHg 84%
08:00 +23°C° 0 mm 0 mps 728 mmHg 81%
09:00 +27°C° 0 mm 1 mps 729 mmHg 72%
10:00 +29°C° 0 mm 1 mps 729 mmHg 62%
11:00 +32°C° 0 mm 1 mps 729 mmHg 53%
12:00 +32°C° 0 mm 2 mps 728 mmHg 50%
13:00 +34°C° 0 mm 2 mps 728 mmHg 47%
14:00 +35°C° 0 mm 3 mps 727 mmHg 45%
15:00 +34°C° 0 mm 2 mps 727 mmHg 49%
16:00 +32°C° 0 mm 2 mps 726 mmHg 53%
17:00 +31°C° 0 mm 2 mps 726 mmHg 57%
18:00 +29°C° 0 mm 1 mps 726 mmHg 64%
19:00 +28°C° 0 mm 1 mps 726 mmHg 71%
20:00 +24°C° 0 mm 0 mps 727 mmHg 77%
21:00 +24°C° 0 mm 0 mps 727 mmHg 78%
22:00 +23°C° 0 mm 0 mps 727 mmHg 79%
23:00 +23°C° 0 mm 0 mps 727 mmHg 80%

21 May, Friday

Time Temperature Precipitation Wind Pressure Humidity
00:00 +23°C° 0 mm 0 mps 727 mmHg 80%
01:00 +23°C° 0 mm 0 mps 727 mmHg 80%
02:00 +23°C° 0 mm 0 mps 727 mmHg 80%
03:00 +23°C° 0 mm 0 mps 727 mmHg 81%
04:00 +23°C° 0 mm 0 mps 727 mmHg 83%
05:00 +23°C° 0 mm 0 mps 727 mmHg 84%
06:00 +23°C° 0 mm 0 mps 727 mmHg 84%
07:00 +23°C° 0 mm 0 mps 728 mmHg 83%
08:00 +23°C° 0 mm 0 mps 729 mmHg 83%
09:00 +27°C° 0 mm 1 mps 729 mmHg 74%
10:00 +29°C° 0 mm 1 mps 729 mmHg 65%
11:00 +31°C° 0 mm 2 mps 729 mmHg 56%
12:00 +32°C° 0 mm 2 mps 728 mmHg 53%
13:00 +34°C° 0 mm 3 mps 727 mmHg 50%
14:00 +35°C° 0 mm 3 mps 727 mmHg 47%
15:00 +34°C° 0 mm 3 mps 726 mmHg 52%
16:00 +32°C° 0 mm 2 mps 726 mmHg 56%
17:00 +31°C° 0 mm 2 mps 725 mmHg 60%
18:00 +29°C° 0 mm 1 mps 726 mmHg 67%
19:00 +27°C° 0 mm 1 mps 726 mmHg 73%
20:00 +23°C° 0 mm 0 mps 726 mmHg 80%
21:00 +23°C° 0 mm 0 mps 726 mmHg 82%
22:00 +23°C° 0 mm 0 mps 727 mmHg 84%
23:00 +22°C° 0 mm 0 mps 727 mmHg 86%
Show more